Time,TemperatureF,DewpointF,PressureIn,WindDirection,WindDirectionDegrees,WindSpeedMPH,WindSpeedGustMPH,Humidity,HourlyPrecipIn,Conditions,Clouds,dailyrainin,SoftwareType,DateUTC
2013-01-25 00:04:00,-12.4,-19.1,29.83,NW,307,0.0,1.0,71,0.00,,,0.00,LWC V2.00 B2112,2013-01-25 09:04:00,
2013-01-25 00:09:00,-12.5,-18.9,29.83,WNW,290,0.0,0.0,72,0.00,,,0.00,LWC V2.00 B2112,2013-01-25 09:09:00,
2013-01-25 00:14:00,-12.7,-19.1,29.83,WNW,290,0.0,0.0,72,0.00,,,0.00,LWC V2.00 B2112,2013-01-25 09:14:00,
2013-01-25 00:19:00,-12.8,-19.2,29.83,WNW,292,1.0,1.0,72,0.00,,,0.00,LWC V2.00 B2112,2013-01-25 09:19:00,
2013-01-25 00:24:00,-12.8,-19.2,29.83,WNW,291,1.0,1.0,72,0.00,,,0.00,LWC V2.00 B2112,2013-01-25 09:24:00,
2013-01-25 00:29:00,-12.9,-19.0,29.83,WNW,291,0.0,1.0,73,0.00,,,0.00,LWC V2.00 B2112,2013-01-25 09:29:00,
2013-01-25 00:34:00,-12.9,-19.0,29.83,WNW,294,0.0,1.0,73,0.00,,,0.00,LWC V2.00 B2112,2013-01-25 09:34:00,
2013-01-25 00:39:00,-12.9,-19.0,29.83,WNW,295,0.0,1.0,73,0.00,,,0.00,LWC V2.00 B2112,2013-01-25 09:39:00,
2013-01-25 00:44:00,-12.8,-18.9,29.83,WNW,295,0.0,0.0,73,0.00,,,0.00,LWC V2.00 B2112,2013-01-25 09:44:00,
2013-01-25 00:54:00,-13.0,-19.1,29.83,WNW,294,0.0,0.0,73,0.00,,,0.00,LWC V2.00 B2112,2013-01-25 09:54:00,
2013-01-25 00:59:00,-13.0,-19.1,29.83,WNW,295,0.0,0.0,73,0.00,,,0.00,LWC V2.00 B2112,2013-01-25 09:59:00,
2013-01-25 01:04:00,-12.9,-19.0,29.83,WNW,296,1.0,1.0,73,0.00,,,0.00,LWC V2.00 B2112,2013-01-25 10:04:00,
2013-01-25 01:09:00,-13.1,-19.2,29.83,WNW,295,0.0,1.0,73,0.00,,,0.00,LWC V2.00 B2112,2013-01-25 10:09:00,
2013-01-25 01:14:00,-13.0,-19.1,29.83,WNW,284,0.0,1.0,73,0.00,,,0.00,LWC V2.00 B2112,2013-01-25 10:14:00,
2013-01-25 01:19:00,-13.0,-19.1,29.83,WNW,291,0.0,1.0,73,0.00,,,0.00,LWC V2.00 B2112,2013-01-25 10:19:00,
2013-01-25 01:24:00,-13.0,-19.1,29.83,WNW,295,0.0,1.0,73,0.00,,,0.00,LWC V2.00 B2112,2013-01-25 10:24:00,
2013-01-25 01:29:00,-13.1,-19.5,29.83,WNW,284,0.0,1.0,72,0.00,,,0.00,LWC V2.00 B2112,2013-01-25 10:29:00,
2013-01-25 01:34:00,-13.3,-19.4,29.84,WNW,286,0.0,1.0,73,0.00,,,0.00,LWC V2.00 B2112,2013-01-25 10:34:00,
2013-01-25 01:39:00,-13.7,-19.8,29.84,WNW,286,0.0,1.0,73,0.00,,,0.00,LWC V2.00 B2112,2013-01-25 10:39:00,
2013-01-25 01:44:00,-13.6,-19.7,29.84,WNW,297,1.0,1.0,73,0.00,,,0.00,LWC V2.00 B2112,2013-01-25 10:44:00,
2013-01-25 01:49:00,-13.5,-19.6,29.84,West,264,0.0,0.0,73,0.00,,,0.00,LWC V2.00 B2112,2013-01-25 10:49:00,
2013-01-25 01:54:00,-13.5,-19.6,29.84,SE,140,0.0,1.0,73,0.00,,,0.00,LWC V2.00 B2112,2013-01-25 10:54:00,
2013-01-25 01:59:00,-13.6,-19.7,29.84,SE,140,0.0,0.0,73,0.00,,,0.00,LWC V2.00 B2112,2013-01-25 10:59:00,
2013-01-25 02:04:00,-14.3,-20.4,29.84,WNW,303,0.0,1.0,73,0.00,,,0.00,LWC V2.00 B2112,2013-01-25 11:04:00,
2013-01-25 02:09:00,-14.4,-20.2,29.84,WNW,301,0.0,1.0,74,0.00,,,0.00,LWC V2.00 B2112,2013-01-25 11:09:00,
2013-01-25 02:14:00,-14.3,-19.9,29.84,WNW,302,0.0,0.0,75,0.00,,,0.00,LWC V2.00 B2112,2013-01-25 11:14:00,
2013-01-25 02:19:00,-14.2,-20.0,29.84,WNW,301,0.0,0.0,74,0.00,,,0.00,LWC V2.00 B2112,2013-01-25 11:19:00,
2013-01-25 02:24:00,-14.3,-20.1,29.84,WNW,301,0.0,1.0,74,0.00,,,0.00,LWC V2.00 B2112,2013-01-25 11:24:00,
2013-01-25 02:29:00,-14.3,-20.1,29.84,WNW,288,0.0,0.0,74,0.00,,,0.00,LWC V2.00 B2112,2013-01-25 11:29:00,
2013-01-25 02:34:00,-14.4,-20.2,29.84,WNW,288,0.0,0.0,74,0.00,,,0.00,LWC V2.00 B2112,2013-01-25 11:34:00,
2013-01-25 02:39:00,-14.7,-20.5,29.84,WNW,288,0.0,1.0,74,0.00,,,0.00,LWC V2.00 B2112,2013-01-25 11:39:00,
2013-01-25 02:44:00,-15.0,-20.8,29.84,WNW,286,0.0,0.0,74,0.00,,,0.00,LWC V2.00 B2112,2013-01-25 11:44:00,
2013-01-25 02:49:00,-14.9,-20.5,29.84,WNW,286,0.0,0.0,75,0.00,,,0.00,LWC V2.00 B2112,2013-01-25 11:49:00,
2013-01-25 02:54:00,-14.7,-20.3,29.84,WNW,299,0.0,1.0,75,0.00,,,0.00,LWC V2.00 B2112,2013-01-25 11:54:00,
2013-01-25 02:59:00,-14.8,-20.4,29.85,WNW,298,0.0,0.0,75,0.00,,,0.00,LWC V2.00 B2112,2013-01-25 11:59:00,
2013-01-25 03:04:00,-14.8,-20.4,29.85,SSW,213,0.0,0.0,75,0.00,,,0.00,LWC V2.00 B2112,2013-01-25 12:04:00,
2013-01-25 03:09:00,-15.0,-20.6,29.85,WNW,290,0.0,1.0,75,0.00,,,0.00,LWC V2.00 B2112,2013-01-25 12:09:00,
2013-01-25 03:14:00,-14.8,-20.4,29.85,WNW,291,0.0,1.0,75,0.00,,,0.00,LWC V2.00 B2112,2013-01-25 12:14:00,
2013-01-25 03:19:00,-14.5,-20.1,29.85,West,281,0.0,0.0,75,0.00,,,0.00,LWC V2.00 B2112,2013-01-25 12:19:00,
2013-01-25 03:24:00,-14.6,-20.4,29.85,WNW,286,0.0,1.0,74,0.00,,,0.00,LWC V2.00 B2112,2013-01-25 12:24:00,
2013-01-25 03:29:00,-14.5,-20.1,29.85,WNW,286,0.0,1.0,75,0.00,,,0.00,LWC V2.00 B2112,2013-01-25 12:29:00,
2013-01-25 03:34:00,-14.6,-20.2,29.85,WNW,295,0.0,1.0,75,0.00,,,0.00,LWC V2.00 B2112,2013-01-25 12:34:00,
2013-01-25 03:39:00,-14.8,-20.6,29.85,WNW,294,0.0,1.0,74,0.00,,,0.00,LWC V2.00 B2112,2013-01-25 12:39:00,
2013-01-25 03:44:00,-14.7,-20.5,29.85,WNW,294,0.0,0.0,74,0.00,,,0.00,LWC V2.00 B2112,2013-01-25 12:44:00,
2013-01-25 03:49:00,-15.0,-20.8,29.85,WNW,294,0.0,0.0,74,0.00,,,0.00,LWC V2.00 B2112,2013-01-25 12:49:00,
2013-01-25 03:54:00,-15.0,-20.8,29.85,WNW,294,0.0,0.0,74,0.00,,,0.00,LWC V2.00 B2112,2013-01-25 12:54:00,
2013-01-25 03:59:00,-15.2,-21.0,29.85,WNW,294,1.0,1.0,74,0.00,,,0.00,LWC V2.00 B2112,2013-01-25 12:59:00,
2013-01-25 04:04:00,-15.2,-20.8,29.85,WNW,294,0.0,0.0,75,0.00,,,0.00,LWC V2.00 B2112,2013-01-25 13:04:00,
2013-01-25 04:09:00,-15.3,-21.1,29.85,WNW,294,0.0,1.0,74,0.00,,,0.00,LWC V2.00 B2112,2013-01-25 13:09:00,
2013-01-25 04:14:00,-15.7,-21.2,29.85,WNW,295,0.0,0.0,75,0.00,,,0.00,LWC V2.00 B2112,2013-01-25 13:14:00,
2013-01-25 04:19:00,-15.7,-21.2,29.85,WNW,298,1.0,1.0,75,0.00,,,0.00,LWC V2.00 B2112,2013-01-25 13:19:00,
2013-01-25 04:24:00,-14.9,-20.2,29.85,WNW,297,0.0,1.0,76,0.00,,,0.00,LWC V2.00 B2112,2013-01-25 13:24:00,
2013-01-25 04:29:00,-15.2,-21.0,29.85,WNW,298,0.0,0.0,74,0.00,,,0.00,LWC V2.00 B2112,2013-01-25 13:29:00,
2013-01-25 04:34:00,-15.4,-21.0,29.85,WNW,301,0.0,0.0,75,0.00,,,0.00,LWC V2.00 B2112,2013-01-25 13:34:00,
2013-01-25 04:39:00,-15.8,-21.6,29.85,WNW,302,0.0,0.0,74,0.00,,,0.00,LWC V2.00 B2112,2013-01-25 13:39:00,
2013-01-25 04:44:00,-15.9,-21.4,29.85,WNW,302,0.0,0.0,75,0.00,,,0.00,LWC V2.00 B2112,2013-01-25 13:44:00,
2013-01-25 04:49:00,-16.2,-21.5,29.85,WSW,258,0.0,1.0,76,0.00,,,0.00,LWC V2.00 B2112,2013-01-25 13:49:00,
2013-01-25 04:54:00,-16.2,-21.5,29.85,West,260,0.0,0.0,76,0.00,,,0.00,LWC V2.00 B2112,2013-01-25 13:54:00,
2013-01-25 04:59:00,-16.4,-21.7,29.85,West,279,0.0,0.0,76,0.00,,,0.00,LWC V2.00 B2112,2013-01-25 13:59:00,
2013-01-25 05:04:00,-16.3,-21.6,29.85,WNW,286,0.0,0.0,76,0.00,,,0.00,LWC V2.00 B2112,2013-01-25 14:04:00,
2013-01-25 05:09:00,-15.9,-21.2,29.85,WNW,290,0.0,1.0,76,0.00,,,0.00,LWC V2.00 B2112,2013-01-25 14:09:00,
2013-01-25 05:14:00,-15.6,-20.9,29.85,WNW,290,0.0,0.0,76,0.00,,,0.00,LWC V2.00 B2112,2013-01-25 14:14:00,
2013-01-25 05:19:00,-15.2,-20.8,29.85,WNW,290,0.0,1.0,75,0.00,,,0.00,LWC V2.00 B2112,2013-01-25 14:19:00,
2013-01-25 05:24:00,-15.3,-21.1,29.85,WNW,290,0.0,0.0,74,0.00,,,0.00,LWC V2.00 B2112,2013-01-25 14:24:00,
2013-01-25 05:29:00,-15.5,-21.3,29.86,WNW,291,1.0,1.0,74,0.00,,,0.00,LWC V2.00 B2112,2013-01-25 14:29:00,
2013-01-25 05:34:00,-15.6,-21.4,29.86,West,280,0.0,0.0,74,0.00,,,0.00,LWC V2.00 B2112,2013-01-25 14:34:00,
2013-01-25 05:39:00,-15.7,-21.5,29.86,West,281,0.0,0.0,74,0.00,,,0.00,LWC V2.00 B2112,2013-01-25 14:39:00,
2013-01-25 05:44:00,-16.0,-21.8,29.86,West,281,0.0,0.0,74,0.00,,,0.00,LWC V2.00 B2112,2013-01-25 14:44:00,
2013-01-25 05:49:00,-16.2,-21.7,29.86,WNW,290,0.0,1.0,75,0.00,,,0.00,LWC V2.00 B2112,2013-01-25 14:49:00,
2013-01-25 05:54:00,-16.5,-22.0,29.86,WNW,290,0.0,0.0,75,0.00,,,0.00,LWC V2.00 B2112,2013-01-25 14:54:00,
2013-01-25 05:59:00,-16.6,-22.1,29.86,WNW,291,0.0,0.0,75,0.00,,,0.00,LWC V2.00 B2112,2013-01-25 14:59:00,
2013-01-25 06:04:00,-16.2,-21.5,29.85,West,273,0.0,0.0,76,0.00,,,0.00,LWC V2.00 B2112,2013-01-25 15:04:00,
2013-01-25 06:09:00,-16.3,-21.8,29.86,ESE,112,0.0,0.0,75,0.00,,,0.00,LWC V2.00 B2112,2013-01-25 15:09:00,
2013-01-25 06:14:00,-16.8,-22.3,29.86,WNW,284,0.0,0.0,75,0.00,,,0.00,LWC V2.00 B2112,2013-01-25 15:14:00,
2013-01-25 06:19:00,-16.9,-22.4,29.86,WNW,288,0.0,1.0,75,0.00,,,0.00,LWC V2.00 B2112,2013-01-25 15:19:00,
2013-01-25 06:24:00,-17.1,-22.6,29.86,WNW,288,0.0,0.0,75,0.00,,,0.00,LWC V2.00 B2112,2013-01-25 15:24:00,
2013-01-25 06:29:00,-17.1,-22.6,29.86,WNW,287,0.0,0.0,75,0.00,,,0.00,LWC V2.00 B2112,2013-01-25 15:29:00,
2013-01-25 06:34:00,-17.2,-22.5,29.86,WNW,286,0.0,1.0,76,0.00,,,0.00,LWC V2.00 B2112,2013-01-25 15:34:00,
2013-01-25 06:39:00,-17.4,-22.6,29.87,WNW,288,0.0,1.0,76,0.00,,,0.00,LWC V2.00 B2112,2013-01-25 15:39:00,
2013-01-25 06:44:00,-17.5,-22.7,29.87,WNW,288,0.0,0.0,76,0.00,,,0.00,LWC V2.00 B2112,2013-01-25 15:44:00,
2013-01-25 06:54:00,-17.3,-22.8,29.87,WNW,288,0.0,0.0,75,0.00,,,0.00,LWC V2.00 B2112,2013-01-25 15:54:00,
2013-01-25 06:59:00,-17.5,-23.0,29.87,SW,225,0.0,0.0,75,0.00,,,0.00,LWC V2.00 B2112,2013-01-25 15:59:00,
2013-01-25 07:04:00,-17.9,-23.4,29.87,West,275,0.0,0.0,75,0.00,,,0.00,LWC V2.00 B2112,2013-01-25 16:04:00,
2013-01-25 07:09:00,-17.7,-22.9,29.87,WNW,284,0.0,0.0,76,0.00,,,0.00,LWC V2.00 B2112,2013-01-25 16:09:00,
2013-01-25 07:14:00,-17.6,-22.8,29.88,WNW,284,0.0,0.0,76,0.00,,,0.00,LWC V2.00 B2112,2013-01-25 16:14:00,
2013-01-25 07:19:00,-17.9,-23.1,29.88,WNW,284,0.0,1.0,76,0.00,,,0.00,LWC V2.00 B2112,2013-01-25 16:19:00,
2013-01-25 07:24:00,-18.1,-23.3,29.88,WNW,284,0.0,1.0,76,0.00,,,0.00,LWC V2.00 B2112,2013-01-25 16:24:00,
2013-01-25 07:29:00,-17.9,-23.1,29.88,WNW,284,0.0,1.0,76,0.00,,,0.00,LWC V2.00 B2112,2013-01-25 16:29:00,
2013-01-25 07:34:00,-17.9,-23.1,29.88,WNW,284,0.0,0.0,76,0.00,,,0.00,LWC V2.00 B2112,2013-01-25 16:34:00,
2013-01-25 07:39:00,-18.1,-23.3,29.88,WNW,284,0.0,0.0,76,0.00,,,0.00,LWC V2.00 B2112,2013-01-25 16:39:00,
2013-01-25 07:44:00,-18.2,-23.4,29.88,WNW,284,0.0,0.0,76,0.00,,,0.00,LWC V2.00 B2112,2013-01-25 16:44:00,
2013-01-25 07:49:00,-18.4,-23.6,29.88,WNW,284,0.0,1.0,76,0.00,,,0.00,LWC V2.00 B2112,2013-01-25 16:49:00,
2013-01-25 07:54:00,-18.6,-23.6,29.88,WNW,284,0.0,0.0,77,0.00,,,0.00,LWC V2.00 B2112,2013-01-25 16:54:00,
2013-01-25 07:59:00,-18.9,-24.1,29.88,WNW,284,0.0,0.0,76,0.00,,,0.00,LWC V2.00 B2112,2013-01-25 16:59:00,
2013-01-25 08:04:00,-19.3,-24.5,29.88,WNW,284,0.0,1.0,76,0.00,,,0.00,LWC V2.00 B2112,2013-01-25 17:04:00,
2013-01-25 08:09:00,-18.9,-23.6,29.88,WNW,284,0.0,0.0,78,0.00,,,0.00,LWC V2.00 B2112,2013-01-25 17:09:00,
2013-01-25 08:14:00,-18.9,-23.9,29.88,WNW,284,0.0,0.0,77,0.00,,,0.00,LWC V2.00 B2112,2013-01-25 17:14:00,
2013-01-25 08:19:00,-19.4,-24.3,29.88,WNW,284,0.0,0.0,77,0.00,,,0.00,LWC V2.00 B2112,2013-01-25 17:19:00,
2013-01-25 08:24:00,-19.3,-24.2,29.88,WNW,284,0.0,0.0,77,0.00,,,0.00,LWC V2.00 B2112,2013-01-25 17:24:00,
2013-01-25 08:29:00,-19.4,-24.3,29.88,WNW,284,0.0,0.0,77,0.00,,,0.00,LWC V2.00 B2112,2013-01-25 17:29:00,
2013-01-25 08:34:00,-19.4,-24.3,29.89,WNW,284,0.0,0.0,77,0.00,,,0.00,LWC V2.00 B2112,2013-01-25 17:34:00,
2013-01-25 08:39:00,-19.6,-24.5,29.89,WNW,284,0.0,0.0,77,0.00,,,0.00,LWC V2.00 B2112,2013-01-25 17:39:00,
2013-01-25 08:44:00,-20.0,-24.9,29.89,WNW,284,0.0,0.0,77,0.00,,,0.00,LWC V2.00 B2112,2013-01-25 17:44:00,
2013-01-25 08:49:00,-19.8,-24.5,29.89,WNW,284,0.0,0.0,78,0.00,,,0.00,LWC V2.00 B2112,2013-01-25 17:49:00,
2013-01-25 08:54:00,-19.8,-24.7,29.89,WNW,284,0.0,0.0,77,0.00,,,0.00,LWC V2.00 B2112,2013-01-25 17:54:00,
2013-01-25 08:59:00,-20.1,-24.8,29.89,WNW,284,0.0,0.0,78,0.00,,,0.00,LWC V2.00 B2112,2013-01-25 17:59:00,
2013-01-25 09:04:00,-20.5,-25.2,29.89,WNW,284,0.0,0.0,78,0.00,,,0.00,LWC V2.00 B2112,2013-01-25 18:04:00,
2013-01-25 09:09:00,-21.0,-25.9,29.90,WNW,284,0.0,0.0,77,0.00,,,0.00,LWC V2.00 B2112,2013-01-25 18:09:00,
2013-01-25 09:14:00,-21.4,-26.3,29.90,WNW,284,0.0,0.0,77,0.00,,,0.00,LWC V2.00 B2112,2013-01-25 18:14:00,
2013-01-25 09:19:00,-21.4,-26.1,29.90,WNW,284,0.0,0.0,78,0.00,,,0.00,LWC V2.00 B2112,2013-01-25 18:19:00,
2013-01-25 09:24:00,-21.5,-26.2,29.90,WNW,284,0.0,0.0,78,0.00,,,0.00,LWC V2.00 B2112,2013-01-25 18:24:00,
2013-01-25 09:29:00,-21.5,-25.9,29.90,WNW,284,0.0,0.0,79,0.00,,,0.00,LWC V2.00 B2112,2013-01-25 18:29:00,
2013-01-25 09:34:00,-21.5,-25.9,29.90,WNW,284,0.0,0.0,79,0.00,,,0.00,LWC V2.00 B2112,2013-01-25 18:34:00,
2013-01-25 09:39:00,-21.4,-25.8,29.90,WNW,284,0.0,0.0,79,0.00,,,0.00,LWC V2.00 B2112,2013-01-25 18:39:00,
2013-01-25 09:44:00,-21.3,-25.7,29.90,WNW,284,0.0,0.0,79,0.00,,,0.00,LWC V2.00 B2112,2013-01-25 18:44:00,
2013-01-25 09:49:00,-21.5,-26.2,29.90,WNW,284,0.0,0.0,78,0.00,,,0.00,LWC V2.00 B2112,2013-01-25 18:49:00,
2013-01-25 09:54:00,-21.9,-26.5,29.90,WNW,284,0.0,0.0,78,0.00,,,0.00,LWC V2.00 B2112,2013-01-25 18:54:00,
2013-01-25 09:59:00,-22.2,-26.8,29.90,WNW,284,0.0,0.0,78,0.00,,,0.00,LWC V2.00 B2112,2013-01-25 18:59:00,
2013-01-25 10:04:00,-22.3,-26.7,29.90,WNW,284,0.0,0.0,79,0.00,,,0.00,LWC V2.00 B2112,2013-01-25 19:04:00,
2013-01-25 10:09:00,-22.5,-26.9,29.91,WNW,284,0.0,0.0,79,0.00,,,0.00,LWC V2.00 B2112,2013-01-25 19:09:00,
2013-01-25 10:14:00,-22.8,-27.2,29.90,WNW,284,0.0,0.0,79,0.00,,,0.00,LWC V2.00 B2112,2013-01-25 19:14:00,
2013-01-25 10:19:00,-22.9,-27.3,29.91,WNW,284,0.0,0.0,79,0.00,,,0.00,LWC V2.00 B2112,2013-01-25 19:19:00,
2013-01-25 10:24:00,-22.8,-27.2,29.91,WNW,284,0.0,0.0,79,0.00,,,0.00,LWC V2.00 B2112,2013-01-25 19:24:00,
2013-01-25 10:29:00,-22.8,-27.2,29.91,WNW,284,0.0,0.0,79,0.00,,,0.00,LWC V2.00 B2112,2013-01-25 19:29:00,
2013-01-25 10:34:00,-22.5,-26.7,29.91,WNW,284,0.0,0.0,80,0.00,,,0.00,LWC V2.00 B2112,2013-01-25 19:34:00,
2013-01-25 10:39:00,-22.5,-26.9,29.92,WNW,284,0.0,0.0,79,0.00,,,0.00,LWC V2.00 B2112,2013-01-25 19:39:00,
2013-01-25 10:44:00,-22.6,-27.0,29.92,WNW,284,0.0,0.0,79,0.00,,,0.00,LWC V2.00 B2112,2013-01-25 19:44:00,
2013-01-25 10:49:00,-22.8,-27.2,29.92,WNW,284,0.0,0.0,79,0.00,,,0.00,LWC V2.00 B2112,2013-01-25 19:49:00,
2013-01-25 10:54:00,-22.8,-27.2,29.92,WNW,284,0.0,0.0,79,0.00,,,0.00,LWC V2.00 B2112,2013-01-25 19:54:00,
2013-01-25 10:59:00,-22.8,-27.2,29.92,WNW,284,0.0,0.0,79,0.00,,,0.00,LWC V2.00 B2112,2013-01-25 19:59:00,
2013-01-25 11:04:00,-22.7,-27.1,29.92,WNW,284,0.0,0.0,79,0.00,,,0.00,LWC V2.00 B2112,2013-01-25 20:04:00,
2013-01-25 11:09:00,-22.6,-27.0,29.92,WNW,284,0.0,0.0,79,0.00,,,0.00,LWC V2.00 B2112,2013-01-25 20:09:00,
2013-01-25 11:14:00,-22.6,-27.0,29.92,WNW,284,0.0,0.0,79,0.00,,,0.00,LWC V2.00 B2112,2013-01-25 20:14:00,
2013-01-25 11:19:00,-22.5,-26.9,29.93,WNW,284,0.0,0.0,79,0.00,,,0.00,LWC V2.00 B2112,2013-01-25 20:19:00,
2013-01-25 11:24:00,-22.4,-26.8,29.93,WNW,284,0.0,0.0,79,0.00,,,0.00,LWC V2.00 B2112,2013-01-25 20:24:00,
2013-01-25 11:29:00,-22.4,-26.8,29.93,WNW,284,0.0,0.0,79,0.00,,,0.00,LWC V2.00 B2112,2013-01-25 20:29:00,
2013-01-25 11:34:00,-22.4,-26.8,29.93,WNW,284,0.0,0.0,79,0.00,,,0.00,LWC V2.00 B2112,2013-01-25 20:34:00,
2013-01-25 11:39:00,-22.3,-26.7,29.93,WNW,284,0.0,0.0,79,0.00,,,0.00,LWC V2.00 B2112,2013-01-25 20:39:00,
2013-01-25 11:44:00,-22.2,-26.6,29.94,WNW,284,0.0,0.0,79,0.00,,,0.00,LWC V2.00 B2112,2013-01-25 20:44:00,
2013-01-25 11:49:00,-22.1,-26.5,29.93,WNW,284,0.0,0.0,79,0.00,,,0.00,LWC V2.00 B2112,2013-01-25 20:49:00,
2013-01-25 11:54:00,-22.0,-26.4,29.94,WNW,284,0.0,0.0,79,0.00,,,0.00,LWC V2.00 B2112,2013-01-25 20:54:00,
2013-01-25 11:59:00,-21.8,-26.2,29.94,WNW,284,0.0,0.0,79,0.00,,,0.00,LWC V2.00 B2112,2013-01-25 20:59:00,
2013-01-25 12:04:00,-21.7,-26.1,29.94,WNW,284,0.0,0.0,79,0.00,,,0.00,LWC V2.00 B2112,2013-01-25 21:04:00,
2013-01-25 12:09:00,-21.6,-26.0,29.94,WNW,284,0.0,0.0,79,0.00,,,0.00,LWC V2.00 B2112,2013-01-25 21:09:00,
2013-01-25 12:14:00,-21.6,-26.0,29.94,WNW,284,0.0,0.0,79,0.00,,,0.00,LWC V2.00 B2112,2013-01-25 21:14:00,
2013-01-25 12:19:00,-21.7,-26.1,29.94,WNW,284,0.0,0.0,79,0.00,,,0.00,LWC V2.00 B2112,2013-01-25 21:19:00,
2013-01-25 12:24:00,-21.5,-25.9,29.94,WNW,284,0.0,0.0,79,0.00,,,0.00,LWC V2.00 B2112,2013-01-25 21:24:00,
2013-01-25 12:29:00,-21.5,-25.9,29.94,WNW,284,0.0,0.0,79,0.00,,,0.00,LWC V2.00 B2112,2013-01-25 21:29:00,
2013-01-25 12:34:00,-21.5,-25.9,29.94,WNW,284,0.0,0.0,79,0.00,,,0.00,LWC V2.00 B2112,2013-01-25 21:34:00,
2013-01-25 12:39:00,-21.5,-26.2,29.95,WNW,284,0.0,0.0,78,0.00,,,0.00,LWC V2.00 B2112,2013-01-25 21:39:00,
2013-01-25 12:44:00,-21.6,-26.2,29.95,SE,133,0.0,1.0,78,0.00,,,0.00,LWC V2.00 B2112,2013-01-25 21:44:00,
2013-01-25 12:49:00,-21.8,-26.4,29.95,SE,133,0.0,0.0,78,0.00,,,0.00,LWC V2.00 B2112,2013-01-25 21:49:00,
2013-01-25 12:54:00,-21.7,-26.3,29.95,SE,133,0.0,0.0,78,0.00,,,0.00,LWC V2.00 B2112,2013-01-25 21:54:00,
2013-01-25 12:59:00,-21.5,-25.9,29.95,West,271,0.0,0.0,79,0.00,,,0.00,LWC V2.00 B2112,2013-01-25 21:59:00,
2013-01-25 13:04:00,-21.4,-26.1,29.95,West,272,0.0,0.0,78,0.00,,,0.00,LWC V2.00 B2112,2013-01-25 22:04:00,
2013-01-25 13:09:00,-21.3,-26.0,29.95,West,272,0.0,0.0,78,0.00,,,0.00,LWC V2.00 B2112,2013-01-25 22:09:00,
2013-01-25 13:14:00,-21.2,-25.9,29.96,West,272,0.0,0.0,78,0.00,,,0.00,LWC V2.00 B2112,2013-01-25 22:14:00,
2013-01-25 13:19:00,-21.1,-25.8,29.96,West,272,0.0,0.0,78,0.00,,,0.00,LWC V2.00 B2112,2013-01-25 22:19:00,
2013-01-25 13:24:00,-21.0,-25.7,29.96,West,272,0.0,0.0,78,0.00,,,0.00,LWC V2.00 B2112,2013-01-25 22:24:00,
2013-01-25 13:29:00,-21.1,-25.8,29.96,East,98,0.0,0.0,78,0.00,,,0.00,LWC V2.00 B2112,2013-01-25 22:29:00,
2013-01-25 13:34:00,-21.1,-25.8,29.96,East,98,0.0,0.0,78,0.00,,,0.00,LWC V2.00 B2112,2013-01-25 22:34:00,
2013-01-25 13:39:00,-21.2,-26.1,29.96,East,98,0.0,0.0,77,0.00,,,0.00,LWC V2.00 B2112,2013-01-25 22:39:00,
2013-01-25 13:44:00,-21.3,-26.2,29.96,East,98,0.0,0.0,77,0.00,,,0.00,LWC V2.00 B2112,2013-01-25 22:44:00,
2013-01-25 13:49:00,-21.3,-26.2,29.96,East,98,0.0,0.0,77,0.00,,,0.00,LWC V2.00 B2112,2013-01-25 22:49:00,
2013-01-25 13:59:00,-21.2,-26.1,29.96,East,98,0.0,0.0,77,0.00,,,0.00,LWC V2.00 B2112,2013-01-25 22:59:00,
2013-01-25 14:04:00,-21.4,-26.3,29.96,East,98,0.0,0.0,77,0.00,,,0.00,LWC V2.00 B2112,2013-01-25 23:04:00,
2013-01-25 14:09:00,-21.5,-26.4,29.96,East,98,0.0,0.0,77,0.00,,,0.00,LWC V2.00 B2112,2013-01-25 23:09:00,
2013-01-25 14:14:00,-21.5,-26.4,29.96,East,98,0.0,0.0,77,0.00,,,0.00,LWC V2.00 B2112,2013-01-25 23:14:00,
2013-01-25 14:19:00,-21.7,-26.6,29.97,East,98,0.0,0.0,77,0.00,,,0.00,LWC V2.00 B2112,2013-01-25 23:19:00,
2013-01-25 14:24:00,-21.7,-26.3,29.97,East,98,0.0,0.0,78,0.00,,,0.00,LWC V2.00 B2112,2013-01-25 23:24:00,
2013-01-25 14:29:00,-21.6,-26.2,29.97,NW,323,0.0,0.0,78,0.00,,,0.00,LWC V2.00 B2112,2013-01-25 23:29:00,
2013-01-25 14:34:00,-21.7,-26.6,29.98,NW,323,0.0,0.0,77,0.00,,,0.00,LWC V2.00 B2112,2013-01-25 23:34:00,
2013-01-25 14:39:00,-21.8,-26.7,29.98,NW,304,0.0,0.0,77,0.00,,,0.00,LWC V2.00 B2112,2013-01-25 23:39:00,
2013-01-25 14:44:00,-21.9,-26.8,29.98,NW,304,0.0,0.0,77,0.00,,,0.00,LWC V2.00 B2112,2013-01-25 23:44:00,
2013-01-25 14:49:00,-22.0,-26.6,29.98,NW,304,0.0,0.0,78,0.00,,,0.00,LWC V2.00 B2112,2013-01-25 23:49:00,
2013-01-25 14:54:00,-22.3,-27.2,29.98,NW,304,0.0,0.0,77,0.00,,,0.00,LWC V2.00 B2112,2013-01-25 23:54:00,
2013-01-25 14:59:00,-22.5,-27.4,29.97,NW,304,0.0,0.0,77,0.00,,,0.00,LWC V2.00 B2112,2013-01-25 23:59:00,
2013-01-25 15:04:00,-22.7,-27.6,29.97,NW,304,0.0,0.0,77,0.00,,,0.00,LWC V2.00 B2112,2013-01-26 00:04:00,
2013-01-25 15:09:00,-22.9,-27.8,29.97,NW,304,0.0,0.0,77,0.00,,,0.00,LWC V2.00 B2112,2013-01-26 00:09:00,
2013-01-25 15:14:00,-23.1,-27.9,29.97,NW,304,0.0,0.0,77,0.00,,,0.00,LWC V2.00 B2112,2013-01-26 00:14:00,
2013-01-25 15:19:00,-23.1,-27.7,29.97,NW,304,0.0,0.0,78,0.00,,,0.00,LWC V2.00 B2112,2013-01-26 00:19:00,
2013-01-25 15:24:00,-23.1,-27.7,29.97,NW,304,0.0,0.0,78,0.00,,,0.00,LWC V2.00 B2112,2013-01-26 00:24:00,
2013-01-25 15:29:00,-23.2,-27.8,29.97,NW,304,0.0,0.0,78,0.00,,,0.00,LWC V2.00 B2112,2013-01-26 00:29:00,
2013-01-25 15:34:00,-23.1,-27.5,29.98,NW,304,0.0,0.0,79,0.00,,,0.00,LWC V2.00 B2112,2013-01-26 00:34:00,
2013-01-25 15:39:00,-23.2,-27.8,29.98,NW,304,0.0,0.0,78,0.00,,,0.00,LWC V2.00 B2112,2013-01-26 00:39:00,
2013-01-25 15:44:00,-23.5,-28.1,29.98,NW,304,0.0,0.0,78,0.00,,,0.00,LWC V2.00 B2112,2013-01-26 00:44:00,
2013-01-25 15:49:00,-23.5,-28.1,29.98,NW,304,0.0,0.0,78,0.00,,,0.00,LWC V2.00 B2112,2013-01-26 00:49:00,
2013-01-25 15:54:00,-23.6,-28.2,29.98,NW,304,0.0,0.0,78,0.00,,,0.00,LWC V2.00 B2112,2013-01-26 00:54:00,
2013-01-25 15:59:00,-23.6,-28.2,29.98,NW,304,0.0,0.0,78,0.00,,,0.00,LWC V2.00 B2112,2013-01-26 00:59:00,
2013-01-25 16:04:00,-23.9,-28.5,29.98,NW,304,0.0,0.0,78,0.00,,,0.00,LWC V2.00 B2112,2013-01-26 01:04:00,
2013-01-25 16:09:00,-24.0,-28.6,29.98,NW,304,0.0,0.0,78,0.00,,,0.00,LWC V2.00 B2112,2013-01-26 01:09:00,
2013-01-25 16:14:00,-24.3,-28.9,29.98,NW,304,0.0,0.0,78,0.00,,,0.00,LWC V2.00 B2112,2013-01-26 01:14:00,
2013-01-25 16:19:00,-24.1,-28.5,29.98,NW,304,0.0,0.0,79,0.00,,,0.00,LWC V2.00 B2112,2013-01-26 01:19:00,
2013-01-25 16:24:00,-24.3,-28.9,29.98,NW,304,0.0,0.0,78,0.00,,,0.00,LWC V2.00 B2112,2013-01-26 01:24:00,
2013-01-25 16:29:00,-24.1,-28.5,29.98,NW,304,0.0,0.0,79,0.00,,,0.00,LWC V2.00 B2112,2013-01-26 01:29:00,
2013-01-25 16:34:00,-24.1,-28.5,29.98,NW,304,0.0,0.0,79,0.00,,,0.00,LWC V2.00 B2112,2013-01-26 01:34:00,
2013-01-25 16:39:00,-24.0,-28.4,29.99,NW,304,0.0,0.0,79,0.00,,,0.00,LWC V2.00 B2112,2013-01-26 01:39:00,
2013-01-25 16:44:00,-23.9,-28.3,29.99,NW,304,0.0,0.0,79,0.00,,,0.00,LWC V2.00 B2112,2013-01-26 01:44:00,
2013-01-25 16:49:00,-23.8,-28.2,29.99,NW,304,0.0,0.0,79,0.00,,,0.00,LWC V2.00 B2112,2013-01-26 01:49:00,
2013-01-25 16:54:00,-23.9,-28.3,29.99,NW,304,0.0,0.0,79,0.00,,,0.00,LWC V2.00 B2112,2013-01-26 01:54:00,
2013-01-25 16:59:00,-24.1,-28.5,30.00,NW,304,0.0,0.0,79,0.00,,,0.00,LWC V2.00 B2112,2013-01-26 01:59:00,
2013-01-25 17:04:00,-24.4,-29.0,30.00,NW,304,0.0,0.0,78,0.00,,,0.00,LWC V2.00 B2112,2013-01-26 02:04:00,
2013-01-25 17:09:00,-24.3,-28.7,29.99,WNW,303,0.0,0.0,79,0.00,,,0.00,LWC V2.00 B2112,2013-01-26 02:09:00,
2013-01-25 17:14:00,-24.2,-28.6,30.00,WNW,303,0.0,0.0,79,0.00,,,0.00,LWC V2.00 B2112,2013-01-26 02:14:00,
2013-01-25 17:19:00,-24.3,-28.7,30.00,WNW,303,0.0,0.0,79,0.00,,,0.00,LWC V2.00 B2112,2013-01-26 02:19:00,
2013-01-25 17:24:00,-24.4,-28.7,30.00,WNW,303,0.0,0.0,79,0.00,,,0.00,LWC V2.00 B2112,2013-01-26 02:24:00,
2013-01-25 17:29:00,-24.5,-28.8,30.00,WNW,303,0.0,0.0,79,0.00,,,0.00,LWC V2.00 B2112,2013-01-26 02:29:00,
2013-01-25 17:34:00,-24.5,-28.8,30.00,WNW,303,0.0,0.0,79,0.00,,,0.00,LWC V2.00 B2112,2013-01-26 02:34:00,
2013-01-25 17:39:00,-24.6,-29.2,30.00,WNW,303,0.0,0.0,78,0.00,,,0.00,LWC V2.00 B2112,2013-01-26 02:39:00,
2013-01-25 17:44:00,-24.7,-29.3,30.00,WNW,303,0.0,0.0,78,0.00,,,0.00,LWC V2.00 B2112,2013-01-26 02:44:00,
2013-01-25 17:49:00,-24.4,-28.7,30.00,WNW,303,0.0,0.0,79,0.00,,,0.00,LWC V2.00 B2112,2013-01-26 02:49:00,
2013-01-25 17:54:00,-24.3,-28.7,30.00,WNW,303,0.0,0.0,79,0.00,,,0.00,LWC V2.00 B2112,2013-01-26 02:54:00,
2013-01-25 17:59:00,-24.7,-29.3,30.00,WNW,303,0.0,0.0,78,0.00,,,0.00,LWC V2.00 B2112,2013-01-26 02:59:00,
2013-01-25 18:04:00,-24.8,-29.4,30.00,WNW,303,0.0,0.0,78,0.00,,,0.00,LWC V2.00 B2112,2013-01-26 03:04:00,
2013-01-25 18:09:00,-24.7,-29.0,30.00,WNW,303,0.0,0.0,79,0.00,,,0.00,LWC V2.00 B2112,2013-01-26 03:09:00,
2013-01-25 18:14:00,-24.7,-29.0,30.00,WNW,303,0.0,0.0,79,0.00,,,0.00,LWC V2.00 B2112,2013-01-26 03:14:00,
2013-01-25 18:19:00,-24.9,-29.5,30.00,WNW,303,0.0,0.0,78,0.00,,,0.00,LWC V2.00 B2112,2013-01-26 03:19:00,
2013-01-25 18:24:00,-24.8,-29.1,30.00,WNW,303,0.0,0.0,79,0.00,,,0.00,LWC V2.00 B2112,2013-01-26 03:24:00,
2013-01-25 18:29:00,-24.7,-29.0,30.00,WNW,303,0.0,0.0,79,0.00,,,0.00,LWC V2.00 B2112,2013-01-26 03:29:00,
2013-01-25 18:34:00,-24.7,-29.0,30.01,WNW,303,0.0,0.0,79,0.00,,,0.00,LWC V2.00 B2112,2013-01-26 03:34:00,
2013-01-25 18:39:00,-24.7,-29.0,30.01,WNW,302,0.0,0.0,79,0.00,,,0.00,LWC V2.00 B2112,2013-01-26 03:39:00,
2013-01-25 18:44:00,-24.8,-29.1,30.01,WNW,303,0.0,0.0,79,0.00,,,0.00,LWC V2.00 B2112,2013-01-26 03:44:00,
2013-01-25 18:49:00,-25.1,-29.7,30.01,WNW,303,0.0,0.0,78,0.00,,,0.00,LWC V2.00 B2112,2013-01-26 03:49:00,
2013-01-25 18:54:00,-25.0,-29.3,30.01,WNW,303,0.0,0.0,79,0.00,,,0.00,LWC V2.00 B2112,2013-01-26 03:54:00,
2013-01-25 18:59:00,-24.8,-29.1,30.01,WNW,302,0.0,0.0,79,0.00,,,0.00,LWC V2.00 B2112,2013-01-26 03:59:00,
2013-01-25 19:04:00,-24.7,-29.0,30.01,WNW,303,0.0,0.0,79,0.00,,,0.00,LWC V2.00 B2112,2013-01-26 04:04:00,
2013-01-25 19:09:00,-24.8,-29.4,30.01,WNW,303,0.0,0.0,78,0.00,,,0.00,LWC V2.00 B2112,2013-01-26 04:09:00,
2013-01-25 19:14:00,-24.7,-29.0,30.01,WNW,303,0.0,0.0,79,0.00,,,0.00,LWC V2.00 B2112,2013-01-26 04:14:00,
2013-01-25 19:19:00,-25.0,-29.6,30.02,WNW,303,0.0,0.0,78,0.00,,,0.00,LWC V2.00 B2112,2013-01-26 04:19:00,
2013-01-25 19:24:00,-25.4,-30.0,30.02,WNW,303,0.0,0.0,78,0.00,,,0.00,LWC V2.00 B2112,2013-01-26 04:24:00,
2013-01-25 19:29:00,-25.6,-30.2,30.01,WNW,303,0.0,0.0,78,0.00,,,0.00,LWC V2.00 B2112,2013-01-26 04:29:00,
2013-01-25 19:34:00,-26.0,-30.8,30.02,WNW,303,0.0,0.0,77,0.00,,,0.00,LWC V2.00 B2112,2013-01-26 04:34:00,
2013-01-25 19:39:00,-26.2,-31.0,30.02,WNW,302,0.0,0.0,77,0.00,,,0.00,LWC V2.00 B2112,2013-01-26 04:39:00,
2013-01-25 19:44:00,-26.1,-30.6,30.02,WNW,303,0.0,0.0,78,0.00,,,0.00,LWC V2.00 B2112,2013-01-26 04:44:00,
2013-01-25 19:49:00,-25.7,-30.0,30.02,ENE,63,0.0,0.0,79,0.00,,,0.00,LWC V2.00 B2112,2013-01-26 04:49:00,
2013-01-25 19:54:00,-25.7,-30.0,30.02,NNW,334,0.0,0.0,79,0.00,,,0.00,LWC V2.00 B2112,2013-01-26 04:54:00,
2013-01-25 19:59:00,-26.1,-30.6,30.02,West,277,0.0,0.0,78,0.00,,,0.00,LWC V2.00 B2112,2013-01-26 04:59:00,
2013-01-25 20:00:00,-26.1,-30.6,30.02,NW,317,0.0,0.0,78,0.00,,,0.00,LWC V2.00 B2112,2013-01-26 05:00:00,
2013-01-25 20:04:00,-26.3,-30.8,30.02,West,277,0.0,0.0,78,0.00,,,0.00,LWC V2.00 B2112,2013-01-26 05:04:00,
2013-01-25 20:10:00,-26.3,-30.8,30.02,WNW,283,0.0,0.0,78,0.00,,,0.00,LWC V2.00 B2112,2013-01-26 05:10:00,
2013-01-25 20:20:00,-26.6,-31.1,30.02,West,278,0.0,0.0,78,0.00,,,0.00,LWC V2.00 B2112,2013-01-26 05:20:00,
2013-01-25 20:30:00,-26.8,-31.3,30.02,West,277,0.0,1.0,78,0.00,,,0.00,LWC V2.00 B2112,2013-01-26 05:30:00,
2013-01-25 20:41:00,-26.4,-30.9,30.02,West,277,0.0,0.0,78,0.00,,,0.00,LWC V2.00 B2112,2013-01-26 05:41:00,
2013-01-25 20:46:00,-26.3,-30.8,30.02,West,277,0.0,0.0,78,0.00,,,0.00,LWC V2.00 B2112,2013-01-26 05:46:00,
2013-01-25 20:51:00,-26.4,-30.9,30.02,West,277,0.0,0.0,78,0.00,,,0.00,LWC V2.00 B2112,2013-01-26 05:51:00,
2013-01-25 20:56:00,-26.5,-31.0,30.02,West,277,0.0,0.0,78,0.00,,,0.00,LWC V2.00 B2112,2013-01-26 05:56:00,
2013-01-25 21:01:00,-26.7,-31.2,30.02,West,277,0.0,0.0,78,0.00,,,0.00,LWC V2.00 B2112,2013-01-26 06:01:00,
2013-01-25 21:06:00,-26.6,-31.1,30.02,West,277,0.0,1.0,78,0.00,,,0.00,LWC V2.00 B2112,2013-01-26 06:06:00,
2013-01-25 21:11:00,-26.5,-31.0,30.02,West,277,0.0,0.0,78,0.00,,,0.00,LWC V2.00 B2112,2013-01-26 06:11:00,
2013-01-25 21:21:00,-26.3,-30.8,30.02,West,277,0.0,0.0,78,0.00,,,0.00,LWC V2.00 B2112,2013-01-26 06:21:00,
2013-01-25 21:27:00,-26.4,-30.9,30.02,West,277,0.0,0.0,78,0.00,,,0.00,LWC V2.00 B2112,2013-01-26 06:27:00,
2013-01-25 21:31:00,-26.4,-30.9,30.02,West,277,0.0,0.0,78,0.00,,,0.00,LWC V2.00 B2112,2013-01-26 06:31:00,
2013-01-25 21:36:00,-26.3,-30.8,30.02,West,277,0.0,0.0,78,0.00,,,0.00,LWC V2.00 B2112,2013-01-26 06:36:00,
2013-01-25 21:41:00,-26.5,-31.0,30.02,West,277,0.0,0.0,78,0.00,,,0.00,LWC V2.00 B2112,2013-01-26 06:41:00,
2013-01-25 21:46:00,-26.9,-31.7,30.02,West,277,0.0,0.0,77,0.00,,,0.00,LWC V2.00 B2112,2013-01-26 06:46:00,
2013-01-25 21:52:00,-27.1,-31.8,30.02,West,277,0.0,0.0,77,0.00,,,0.00,LWC V2.00 B2112,2013-01-26 06:52:00,
2013-01-25 21:56:00,-27.2,-31.7,30.02,West,277,0.0,0.0,78,0.00,,,0.00,LWC V2.00 B2112,2013-01-26 06:56:00,
2013-01-25 22:01:00,-27.3,-31.8,30.02,West,277,0.0,0.0,78,0.00,,,0.00,LWC V2.00 B2112,2013-01-26 07:01:00,
2013-01-25 22:06:00,-27.6,-32.3,30.02,West,277,0.0,0.0,77,0.00,,,0.00,LWC V2.00 B2112,2013-01-26 07:06:00,
2013-01-25 22:11:00,-27.8,-32.5,30.02,West,277,0.0,0.0,77,0.00,,,0.00,LWC V2.00 B2112,2013-01-26 07:11:00,
2013-01-25 22:16:00,-28.0,-32.7,30.02,West,277,0.0,0.0,77,0.00,,,0.00,LWC V2.00 B2112,2013-01-26 07:16:00,
2013-01-25 22:21:00,-28.2,-32.9,30.02,West,277,0.0,0.0,77,0.00,,,0.00,LWC V2.00 B2112,2013-01-26 07:21:00,
2013-01-25 22:26:00,-28.3,-33.0,30.02,West,277,0.0,0.0,77,0.00,,,0.00,LWC V2.00 B2112,2013-01-26 07:26:00,
2013-01-25 22:31:00,-28.2,-32.9,30.03,West,277,0.0,0.0,77,0.00,,,0.00,LWC V2.00 B2112,2013-01-26 07:31:00,
2013-01-25 22:36:00,-27.9,-32.4,30.03,West,277,0.0,0.0,78,0.00,,,0.00,LWC V2.00 B2112,2013-01-26 07:36:00,
2013-01-25 22:41:00,-27.9,-32.4,30.03,West,277,0.0,0.0,78,0.00,,,0.00,LWC V2.00 B2112,2013-01-26 07:41:00,
2013-01-25 22:46:00,-27.9,-32.4,30.03,West,277,0.0,0.0,78,0.00,,,0.00,LWC V2.00 B2112,2013-01-26 07:46:00,
2013-01-25 22:51:00,-27.6,-32.1,30.03,West,277,0.0,0.0,78,0.00,,,0.00,LWC V2.00 B2112,2013-01-26 07:51:00,
2013-01-25 22:56:00,-27.8,-32.3,30.03,West,277,0.0,0.0,78,0.00,,,0.00,LWC V2.00 B2112,2013-01-26 07:56:00,
2013-01-25 23:01:00,-28.1,-32.8,30.03,West,277,0.0,0.0,77,0.00,,,0.00,LWC V2.00 B2112,2013-01-26 08:01:00,
2013-01-25 23:06:00,-28.2,-32.9,30.03,West,277,0.0,0.0,77,0.00,,,0.00,LWC V2.00 B2112,2013-01-26 08:06:00,
2013-01-25 23:11:00,-28.3,-33.0,30.03,West,277,0.0,0.0,77,0.00,,,0.00,LWC V2.00 B2112,2013-01-26 08:11:00,
2013-01-25 23:16:00,-28.6,-33.3,30.03,West,277,0.0,0.0,77,0.00,,,0.00,LWC V2.00 B2112,2013-01-26 08:16:00,
2013-01-25 23:21:00,-28.7,-33.4,30.03,West,277,0.0,0.0,77,0.00,,,0.00,LWC V2.00 B2112,2013-01-26 08:21:00,
2013-01-25 23:26:00,-28.9,-33.6,30.03,West,277,0.0,0.0,77,0.00,,,0.00,LWC V2.00 B2112,2013-01-26 08:26:00,
2013-01-25 23:31:00,-29.1,-34.0,30.03,West,277,0.0,0.0,76,0.00,,,0.00,LWC V2.00 B2112,2013-01-26 08:31:00,
2013-01-25 23:36:00,-29.3,-34.0,30.03,West,277,0.0,0.0,77,0.00,,,0.00,LWC V2.00 B2112,2013-01-26 08:36:00,
2013-01-25 23:41:00,-29.4,-34.1,30.03,West,277,0.0,0.0,77,0.00,,,0.00,LWC V2.00 B2112,2013-01-26 08:41:00,
2013-01-25 23:46:00,-29.5,-34.2,30.03,West,277,0.0,0.0,77,0.00,,,0.00,LWC V2.00 B2112,2013-01-26 08:46:00,
2013-01-25 23:51:00,-29.3,-34.0,30.03,West,277,0.0,0.0,77,0.00,,,0.00,LWC V2.00 B2112,2013-01-26 08:51:00,
2013-01-25 23:56:00,-29.4,-34.1,30.03,West,277,0.0,0.0,77,0.00,,,0.00,LWC V2.00 B2112,2013-01-26 08:56:00,